Location: Sungai Bunut
(2.6333°N, 113.7333°E)
Time: 10:31:48
(UTC+00:00)

Courier 1B - Pass Details

Date: 11 December 2023
Orbit: 962 x 1209 km, 28.3° (Epoch: 03 March)

Event Time Altitude Azimuth Distance (km) Brightness Sun altitude
Exits shadow 19:49:51 43° 40° (NE) 1,597 8.6 -35.0°
Drops below altitude 10° 19:54:43 10° 53° (NE) 3,048 10.3 -33.9°
Sets 19:57:29 0° 56° (NE) 3,977 11.0 -33.2°
